Des Moines, IA

8:49 PM CDT on May 27, 2018 (GMT -0500)
Des Moines International

Weather History for KDSM - November, 2010

Change the Weather History Date:

Sunday, November 21, 2010

  Actual Average Record
Temperature  
Mean Temperature 47 °F 36 °F  
Max Temperature 56 °F 45 °F 74 °F (1990)
Min Temperature 37 °F 28 °F -1 °F (1937)
Degree Days  
Heating Degree Days 18 29  
Month to date heating degree days 417 491  
Since 1 July heating degree days 713 975  
Cooling Degree Days 0 0  
Month to date cooling degree days 0 0  
Year to date cooling degree days 1379 1066  
Moisture  
Dew Point 42 °F    
Average Humidity 85    
Maximum Humidity 93    
Minimum Humidity 76    
Precipitation  
Precipitation 0.03 in 0.07 in 1.06 in (1898)
Month to date precipitation 2.10 1.62  
Year to date precipitation 50.81 34.03  
Snow  
Snow 0.00 in 0.10 in 4.80 in (2007)
Month to date snowfall T 1.1  
Since 1 July snowfall T 1.5  
Since 1 September snowfall T 1.5  
Snow Depth 0.00 in    
Sea Level Pressure  
Sea Level Pressure 29.80 in    
Wind  
Wind Speed 10 mph (SW)    
Max Wind Speed 21 mph    
Max Gust Speed 25 mph    
Visibility 5 miles    
Events Rain    
T = Trace of Precipitation, MM = Missing Value Source: NWS Daily Summary

Daily Weather History Graph

Daily Weather History Graph

Search for Another Location

Airport or City:

Astronomy

Nov. 21, 2010 Rise Set
Actual Time 7:10 AM CST 4:50 PM CST
Civil Twilight 6:40 AM CST 5:20 PM CST
Nautical Twilight 6:06 AM CST 5:54 PM CST
Astronomical Twilight 5:33 AM CST 6:27 PM CST
Moon 4:40 PM CST (11/21) 7:13 AM CST (11/21)
Length of Visible Light 10h 40m
Length of Day
9h 39m
Full, 100% of the Moon is Illuminated
Nov 21
Full
Nov 28
Last Quarter
Dec 5
New
Dec 13
First Quarter
Dec 21
Full

Hourly Weather History & Observations

Time (CST) Temp. Windchill Dew Point Humidity Pressure Visibility Wind Dir Wind Speed Gust Speed Precip Events Conditions
12:54 AM 42.1 °F 36.6 °F 37.0 °F 82% 29.93 in 5.0 mi ESE 9.2 mph - N/A   Overcast
1:08 AM 42.8 °F 37.5 °F 37.4 °F 81% 29.91 in 5.0 mi ESE 9.2 mph - N/A   Overcast
1:54 AM 43.0 °F 38.2 °F 39.0 °F 86% 29.91 in 4.0 mi ESE 8.1 mph - N/A   Overcast
2:54 AM 45.0 °F 40.1 °F 39.9 °F 82% 29.87 in 5.0 mi SE 9.2 mph - N/A   Overcast
3:33 AM 46.4 °F 41.9 °F 41.0 °F 81% 29.84 in 5.0 mi ESE 9.2 mph - N/A   Overcast
3:54 AM 46.0 °F 41.9 °F 41.0 °F 83% 29.84 in 5.0 mi ESE 8.1 mph - N/A   Overcast
4:54 AM 46.9 °F - 43.0 °F 86% 29.83 in 2.5 mi SE 10.4 mph - 0.00 in   Light Drizzle
5:05 AM 46.4 °F 42.4 °F 44.6 °F 93% 29.81 in 2.0 mi SE 8.1 mph - 0.00 in   Light Drizzle
5:24 AM 46.4 °F 42.9 °F 44.6 °F 93% 29.80 in 1.8 mi SE 6.9 mph - 0.00 in   Light Drizzle
5:41 AM 46.4 °F 42.9 °F 44.6 °F 93% 29.80 in 1.8 mi ESE 6.9 mph - 0.00 in   Light Drizzle
5:54 AM 46.9 °F - 45.0 °F 93% 29.81 in 1.8 mi SE 6.9 mph - 0.01 in   Light Drizzle
6:33 AM 48.2 °F - 46.4 °F 93% 29.78 in 2.0 mi SE 9.2 mph - 0.00 in   Light Drizzle
6:54 AM 48.2 °F - 46.4 °F 93% 29.78 in 2.5 mi SE 9.2 mph - N/A   Light Drizzle
7:39 AM 48.2 °F - 48.2 °F 100% 29.77 in 1.8 mi SE 9.2 mph - 0.00 in Rain Light Rain
7:54 AM 50.0 °F - 48.0 °F 93% 29.78 in 1.8 mi SE 10.4 mph - 0.01 in   Light Drizzle
8:54 AM 51.1 °F - 50.0 °F 96% 29.77 in 1.5 mi SSE 11.5 mph - 0.00 in Rain Light Rain
9:33 AM 53.6 °F - 51.8 °F 94% 29.74 in 1.8 mi SSE 10.4 mph - N/A   Light Drizzle
9:54 AM 53.1 °F - 52.0 °F 96% 29.75 in 1.8 mi SSE 9.2 mph - 0.00 in   Light Drizzle
10:41 AM 55.4 °F - 53.6 °F 94% 29.72 in 2.0 mi SSW 6.9 mph - 0.01 in   Light Drizzle
10:45 AM 55.4 °F - 53.6 °F 94% 29.72 in 2.0 mi South 8.1 mph - 0.01 in   Light Drizzle
10:54 AM 55.9 °F - 53.1 °F 90% 29.73 in 2.0 mi South 9.2 mph - 0.01 in   Light Drizzle
11:16 AM 53.6 °F - 51.8 °F 94% 29.72 in 2.0 mi West 12.7 mph - 0.00 in Rain Light Rain
11:43 AM 53.6 °F - 50.0 °F 88% 29.72 in 6.0 mi WSW 13.8 mph - 0.00 in   Overcast
11:50 AM 53.6 °F - 48.2 °F 82% 29.71 in 7.0 mi WSW 13.8 mph - 0.00 in   Overcast
11:54 AM 53.1 °F - 48.9 °F 86% 29.73 in 7.0 mi WSW 15.0 mph - 0.00 in   Overcast
12:20 PM 51.8 °F - 48.2 °F 88% 29.71 in 9.0 mi WSW 16.1 mph - N/A   Overcast
12:54 PM 52.0 °F - 46.9 °F 83% 29.72 in 9.0 mi WSW 15.0 mph - N/A   Overcast
1:20 PM 46.4 °F 40.1 °F 42.8 °F 87% 29.72 in 2.0 mi WNW 15.0 mph - N/A   Overcast
1:27 PM 46.4 °F 40.4 °F 42.8 °F 87% 29.73 in 2.0 mi WNW 13.8 mph - N/A   Overcast
1:54 PM 45.0 °F 37.9 °F 42.1 °F 90% 29.75 in 2.0 mi WNW 16.1 mph - N/A   Overcast
2:54 PM 43.0 °F 38.2 °F 39.9 °F 89% 29.77 in 2.0 mi West 8.1 mph - N/A   Overcast
3:17 PM 44.6 °F 38.1 °F 39.2 °F 81% 29.76 in 3.0 mi West 13.8 mph - N/A   Overcast
3:28 PM 42.8 °F 36.6 °F 39.2 °F 87% 29.77 in 3.0 mi West 11.5 mph - N/A   Overcast
3:54 PM 43.0 °F 35.4 °F 39.0 °F 86% 29.79 in 3.0 mi WNW 16.1 mph - N/A   Overcast
4:52 PM 42.8 °F 35.8 °F 35.6 °F 76% 29.80 in 7.0 mi West 13.8 mph - N/A   Overcast
4:54 PM 42.1 °F 34.9 °F 36.0 °F 79% 29.81 in 7.0 mi West 13.8 mph - N/A   Overcast
5:54 PM 41.0 °F 33.9 °F 35.1 °F 79% 29.82 in 9.0 mi WNW 12.7 mph - N/A   Overcast
6:31 PM 39.2 °F 31.6 °F 35.6 °F 87% 29.82 in 7.0 mi NW 12.7 mph - N/A   Overcast
6:54 PM 39.0 °F 32.3 °F 35.1 °F 86% 29.84 in 8.0 mi NW 10.4 mph - N/A   Overcast
7:54 PM 39.0 °F 32.3 °F 35.1 °F 86% 29.86 in 9.0 mi NW 10.4 mph - N/A   Overcast
8:41 PM 37.4 °F 30.8 °F 33.8 °F 87% 29.85 in 10.0 mi NW 9.2 mph - N/A   Overcast
8:54 PM 37.9 °F 32.1 °F 33.1 °F 83% 29.86 in 10.0 mi North 8.1 mph - N/A   Overcast
9:54 PM 37.0 °F 34.5 °F 33.1 °F 86% 29.87 in 10.0 mi NW 3.5 mph - N/A   Overcast
10:26 PM 37.4 °F - 33.8 °F 87% 29.86 in 10.0 mi Calm Calm - N/A   Overcast
10:54 PM 37.0 °F 31.6 °F 33.1 °F 86% 29.87 in 10.0 mi North 6.9 mph - N/A   Overcast
11:54 PM 37.0 °F 34.5 °F 33.1 °F 86% 29.87 in 8.0 mi North 3.5 mph - N/A   Overcast